Sich 1 - Orbit

View from above orbital plane
View from above orbital plane
View from above satellite
View from above satellite

Ground track
Ground track

The orbit data is extracted from the following two-line orbital elements,

1 23657U 95046A   13145.46164693  .00000833  00000-0  98662-4 0   282
2 23657 082.5285 212.3853 0021652 307.1887 052.7350 14.83241335957309
Epoch (UTC): 25 May 2013 11:04:46
Eccentricity: 0.0021652
inclination: 82.5285°
perigee height: 604 km
apogee height: 634 km
right ascension of ascending node: 212.3853°
argument of perigee: 307.1887°
revolutions per day: 14.83241335
mean anomaly at epoch: 52.7350°
orbit number at epoch: 95730

The dashed part of the orbit path shows where the satellite is in the earth's shadow,  

Developed and maintained by Chris Peat, Heavens-Above GmbH. Please read the updated FAQ before sending e-mail. Imprint. DLR